Location: Newark
(51.7378°N, 19.8125°E)
Time: 23:22:23
(UTC+00:00)

Envisat - Pass Details

Date: 12 December 2019
Orbit: 764 x 766 km, 98.1° (Epoch: 21 January)

Event Time Altitude Azimuth Distance (km) Brightness Sun altitude
Rises 18:03:51 0° 216° (SW) 3,225 6.7 -31.6°
Reaches altitude 10° 18:07:11 10° 240° (WSW) 2,305 6.1 -32.2°
Maximum altitude 18:10:02 15° 274° (W) 1,986 5.9 -32.6°
Drops below altitude 10° 18:12:54 10° 309° (NW) 2,315 6.1 -33.0°
Sets 18:16:17 0° 332° (NNW) 3,247 6.6 -33.6°
